[Iaude] MPEC J85: 2024 JX1 [a=2.44,e=0.71,i=10.9,H=26.2]
    mpec at cfa.harvard.edu 
    mpec at cfa.harvard.edu
       
    Sun May  5 13:23:25 EDT 2024
    
    
  
M.P.E.C. 2024-J85                                   Issued 2024 May 5, 17:21 UT
     The Minor Planet Electronic Circulars contain information on unusual
         minor planets, routine data on comets and natural satellites,
         and occasional editorial announcements.  They are published
    on behalf of Division F of the International Astronomical Union by the
          Minor Planet Center, Smithsonian Astrophysical Observatory,
                          Cambridge, MA 02138, U.S.A.
			  
             Prepared using the Tamkin Foundation Computer Network
                              MPC at CFA.HARVARD.EDU
            URL https://www.minorplanetcenter.net/    ISSN 1523-6714
                                    2024 JX1                                    
Observations:
     K24J01X*KB2024 05 04.82848 14 32 14.702-14 22 04.58         17.7 GXEJ085L87
     K24J01X KB2024 05 04.83463 14 32 16.267-14 20 23.71               XEJ085L87
     K24J01X KB2024 05 04.84078 14 32 17.885-14 18 39.31         18.2 GXEJ085L87
     K24J01X 1C2024 05 04.95858 14 32 49.51 -13 48 19.7          20.5 VXEJ085033
     K24J01X 1C2024 05 04.95893 14 32 49.61 -13 48 13.4          20.7 VXEJ085033
     K24J01X 1C2024 05 04.95928 14 32 49.69 -13 48 07.1          20.0 VXEJ085033
     K24J01X KB2024 05 04.96321 14 32 49.606-13 43 04.30               XEJ085L87
     K24J01X KB2024 05 04.96423 14 32 48.59 -13 46 26.2          19.1 GXEJ085M45
     K24J01X KB2024 05 04.96861 14 32 49.82 -13 45 08.2                XEJ085M45
     K24J01X KB2024 05 04.96933 14 32 51.187-13 41 13.06         19.4 GXEJ085L87
     K24J01X KB2024 05 04.97273 14 32 51.01 -13 43 54.0                XEJ085M45
     K24J01X KB2024 05 04.97544 14 32 52.762-13 39 21.92               XEJ085L87
     K24J01X hC2024 05 04.98141714 32 55.56 -13 41 15.1          20.4 GVEJ085L01
     K24J01X IC2024 05 04.98319914 32 56.14 -13 40 43.2          20.0 GVEJ085L01
     K24J01X KC2024 05 04.98503314 32 56.70 -13 40 10.9          19.7 GXEJ085595
     K24J01X KC2024 05 04.99277514 32 58.94 -13 37 48.5          19.5 GXEJ085595
     K24J01X KC2024 05 04.99943114 33 03.562-13 35 57.59         19.1 GVEJ085J95
     K24J01X KC2024 05 05.00180014 33 01.55 -13 35 02.6          19.7 GXEJ085595
     K24J01X KC2024 05 05.00211914 33 04.370-13 35 08.45         19.6 GVEJ085J95
     K24J01X KC2024 05 05.00749014 33 05.998-13 33 29.23         19.0 GVEJ085J95
     K24J01X KB2024 05 05.05980014 33 21.04 -13 16 52.4          19.7 GXEJ085I93
     K24J01X KB2024 05 05.06817114 33 23.60 -13 14 12.0          19.6 GXEJ085I93
     K24J01X KC2024 05 05.23149 14 34 33.36 -12 19 33.1          18.9 RqEJ085734
     K24J01X KC2024 05 05.23849 14 34 35.62 -12 17 06.9          19.3 RqEJ085734
     K24J01X mC2024 05 05.37126514 35 23.276-11 28 11.75               VEJ085I52
     K24J01X mC2024 05 05.37144714 35 23.298-11 28 06.56         19.47GVEJ085I52
     K24J01X mC2024 05 05.37182314 35 23.485-11 27 57.92         19.19GVEJ085I52
Observer details:
033 Karl Schwarzschild Observatory, Tautenburg.  Observers S. Melnikov, C.
    Hogner, F. Ludwig, M. Hartmann, B. Stecklum.  Measurer B. Stecklum.
    1.34-m f/3 Schmidt + CCD.
595 Farra d'Isonzo.  Observer E. Pettarin.  0.61-m f/4.5 reflector + CCD.
734 Farpoint Observatory, Eskridge.  Observers G. Hug, D. Cromer, D. Goodin,
    R. Valentine.  Measurer G. Hug.  0.7m reflector + CCD.
I52 Steward Observatory, Mt. Lemmon Station.  Observer V. F. Carvajal.
    Measurers T. Beuden, V. F. Carvajal, D. Fay, J. B. Fazekas, D. C. Fuls, A.
    R. Gibbs, A. D. Grauer, H. Groeller, J. K. Hogan, R. A. Kowalski, S. M.
    Larson, G. J. Leonard, D. Rankin, R. L. Seaman, F. C. Shelly, K. W.
    Wierzchos.  1.0-m prime focus + CCD.
I93 St Pardon de Conques.  Observer F. Losse.  0.40-m f/3.7 reflector + CMO.
J95 Great Shefford.  Observer P. Birtwhistle.  0.41-m f/6.3 Schmidt-Cassegrain
    + CCD.
L01 Visnjan Observatory, Tican.  Observer K. Korlevic.  1.0-m f/2.9 reflector
    + CCD.
L87 Moonbase South Observatory, Hakos.  Observer G. Duszanowicz.  0.28-m f/1.9
    reflector + CMO.
M45 Starhopper Observatory, Sfantu Gheorghe.  Observer F. Ursache.  0.41-m
    f/7.5 reflector + CMO.
Orbital elements:
2024 JX1                                                 Earth MOID = 0.0126 AU
Epoch 2024 Mar. 31.0 TT = JDT 2460400.5                 Bell                    
M 338.64249              (2000.0)            P               Q                  
n   0.25840125     Peri.   77.78180     +0.51731444     +0.84551475             
a   2.4412165      Node   224.20245     -0.84027691     +0.47253594             
e   0.7103102      Incl.   10.93476     -0.16223587     +0.24862540             
P   3.81           H   26.25          G   0.15           U   8                  
Residuals in seconds of arc
240504 L87  0.6-  3.0-    240504 L87  1.0+  1.4-    240505 J95  0.3-  0.0
240504 L87  1.4-  4.4-    240504 M45  0.3+  1.4-    240505 J95  0.2+  0.1+
240504 L87  1.3-  2.8-    240504 L87  0.5+  1.7-    240505 I93  0.2+  0.5+
240504 033  0.1-  0.3-    240504 L01  0.2-  0.3+    240505 I93  0.4+  0.4+
240504 033  0.1-  0.3-    240504 L01  0.9+  0.3-    240505 734  0.2+  0.3+
240504 033  0.4-  0.2-    240504 595  0.4+  0.3-    240505 734  0.2+  0.6-
240504 L87  1.4+  1.4-    240504 595  0.5+  0.2+    240505 I52  0.1+  0.6-
240504 M45  0.5+  0.7+    240504 J95  0.6-  0.3+    240505 I52  0.5-  0.4+
240504 M45  0.2+  0.7-    240505 595  0.4+  0.2-    240505 I52  0.3+  0.4+
Ephemeris:
2024 JX1                 a,e,i = 2.44, 0.71, 11                  q = 0.7072
Date    TT    R. A. (2000) Decl.     Delta      r    Elong.  Phase     V
2024 04 05    14 10 54.8 -27 53 01   0.4138  1.3794   151.9    19.9    26.0
...
2024 04 20    14 14 53.6 -27 37 37   0.2169  1.2137   163.0    14.0    24.2
...
2024 04 28    14 18 20.6 -25 26 10   0.1203  1.1249   168.7    10.1    22.6
...
2024 05 04    14 28 21.7 -17 32 39   0.05089 1.0591   175.7     4.1    20.3
2024 05 05    14 33 04.1 -13 32 42   0.03976 1.0482   175.3     4.5    19.7
2024 05 06    14 40 59.7 -06 30 40   0.02903 1.0374   169.6    10.1    19.3
...
2024 05 12    01 40 58.7 +46 38 55   0.04498 0.9735    34.6   143.9    26.9
...
2024 05 20    02 03 30.5 +36 01 02   0.1372  0.8929    27.9   148.0    29.8
...
2024 06 04    02 19 34.6 +32 15 39   0.3246  0.7685    34.3   131.9    29.1
M. P. C. Staff               (C) Copyright 2024 MPC           M.P.E.C. 2024-J85
    
    
More information about the Iaude
mailing list